Temperature
20 17 16 16 17 17 18 18 18 20 21 20 19 19 18 18 18 18 18 18 18 18 19 21 21 21 21 21 20 19 20 20 20 19 19 19 18 18 18 18 18 18 18 18
17 16 18 19 19 19 19 19 18 20 21 21 18 18 17 17 17 17 17 16 16 17 18 19 20 20 20 20 19 19 19 20 19 19 19 19 19 18 18 18 18 18 17 17
17 18 20 20 20 20 20 19 19 20 21 20 19 17 17 16 16 16 15 15 16 16 17 18 18 19 19 19 18 18 19 19 19 19 19 19 18 18 18 17 17 17 17 17
18 19 20 20 20 21 19 20 21 21 19 18 19 16 16 16 15 15 14 14 14 15 16 16 17 18 17 18 18 18 18 18 18 18 18 18 18 18 17 17 17 17 17 17
18 19 19 19 20 21 20 20 20 20 19 18 18 16 16 16 15 14 14 13 13 14 14 15 15 16 17 17 17 17 17 18 18 18 18 18 17 17 17 17 16 16 16 16
19 19 20 20 21 21 21 20 19 18 16 17 18 17 16 15 15 14 13 13 13 13 13 14 14 15 15 16 16 16 16 16 17 17 17 17 17 17 16 16 16 15 15 15
18 18 19 20 20 19 20 17 16 16 15 16 17 17 15 15 15 14 13 12 12 12 12 13 13 14 14 14 15 15 15 15 16 16 16 16 16 16 15 15 15 15 14 14
16 16 18 19 19 18 18 17 16 16 16 16 16 16 15 14 13 13 12 11 11 11 11 12 12 12 12 13 13 14 14 14 14 14 14 14 15 14 14 14 14 13 13 13
16 16 18 19 20 19 19 18 16 16 16 15 15 15 14 14 13 12 12 11 11 11 10 10 11 11 11 12 12 12 12 12 13 13 13 13 13 13 13 13 12 12 11 11
16 16 17 18 19 19 18 18 15 15 15 15 15 15 15 14 13 12 11 11 10 10 10 10 10 10 10 10 11 11 11 11 11 12 12 12 12 12 11 11 11 10 10 10
15 15 16 17 17 18 18 18 16 14 14 15 14 14 15 14 13 12 11 10 10 9 9 9 9 9 9 10 10 10 10 10 10 10 10 11 10 10 10 10 9 9 9 9
15 13 14 15 17 18 18 17 16 15 14 14 14 13 13 12 12 11 10 9 9 9 9 9 9 9 9 9 9 9 9 9 9 9 9 9 9 9 9 8 8 8 7 7
15 13 14 15 15 16 16 17 16 14 13 13 14 13 12 12 11 10 10 9 9 9 8 8 8 8 8 8 8 8 8 8 8 8 8 8 8 7 7 7 7 7 7 7
15 13 14 14 15 14 15 17 17 15 13 14 14 13 12 11 11 10 9 9 8 8 8 8 8 7 7 7 7 7 7 7 7 7 7 7 7 6 6 6 6 6 6 6
15 14 14 14 15 16 16 17 17 16 15 14 14 13 12 11 10 10 9 8 8 8 8 7 7 7 7 7 7 7 6 6 7 7 6 6 6 5 5 5 5 5 5 5
14 15 15 15 16 17 17 17 16 16 15 14 13 12 11 11 10 9 9 8 8 8 7 7 7 7 7 7 6 6 6 6 6 6 5 5 5 5 5 5 5 5 5 5
14 14 14 14 16 16 15 15 15 15 14 14 13 12 11 10 10 9 9 8 8 8 7 7 7 7 7 6 6 6 6 6 5 5 5 5 5 5 5 5 5 4 4 4
14 13 12 14 15 14 15 16 15 14 13 12 11 11 11 10 9 9 9 8 8 8 7 7 7 7 6 6 6 6 6 5 5 5 5 5 5 5 5 4 4 4 4 4
15 14 13 13 14 14 15 16 15 13 12 11 11 10 9 9 8 8 8 8 8 8 7 7 7 6 6 6 6 6 5 5 5 5 5 5 5 5 5 4 4 4 4 4
15 14 13 13 14 14 15 16 15 13 11 11 10 9 9 9 8 8 8 8 8 7 7 7 6 6 6 6 6 5 5 5 5 5 5 5 5 5 5 5 4 4 4 4
16 15 14 14 13 14 15 16 15 13 11 11 10 9 9 9 8 8 8 8 7 7 7 7 6 6 6 6 6 5 5 5 5 5 5 5 5 5 5 5 5 5 4 4
15 14 14 13 12 13 14 14 13 11 11 11 10 10 9 9 8 8 8 7 7 7 6 6 6 6 6 6 6 5 5 5 5 5 5 5 5 5 5 5 5 5 4 4
14 13 12 11 11 12 14 13 13 13 11 10 10 10 9 8 8 7 7 7 7 7 6 6 6 6 6 5 5 5 5 5 5 5 5 5 5 5 5 5 5 4 4 4
15 13 12 11 12 12 12 13 13 13 12 11 10 10 9 8 7 7 7 7 6 6 6 6 6 6 5 5 5 5 5 5 5 5 5 5 5 5 5 5 4 4 4 4
15 14 12 11 11 12 12 12 12 11 11 10 9 9 9 8 7 7 7 7 6 6 6 6 6 6 6 6 5 5 5 5 5 5 5 5 5 5 5 5 4 4 4 4
14 13 12 11 12 11 11 11 12 11 10 10 9 8 8 8 8 7 7 7 6 6 6 6 6 6 6 6 6 6 6 6 5 5 5 5 5 5 5 5 4 4 4 4
Wind_Speed
4 1 6 11 11 11 10 10 13 15 11 3 4 3 2 7 9 8 7 8 9 8 7 8 8 7 6 6 6 7 11 12 11 8 7 6 5 5 4 4 7 9 9 9
5 7 15 13 11 9 10 11 13 12 9 3 4 7 8 10 10 9 9 10 11 11 13 14 13 11 8 9 5 3 5 9 9 8 7 5 5 3 3 3 5 6 5 5
9 12 11 9 10 8 8 7 8 8 8 4 5 5 7 9 11 13 12 12 12 13 13 12 14 13 11 10 7 4 3 4 5 4 4 4 4 3 3 3 4 5 7 7
7 8 8 8 8 6 8 9 7 5 4 4 2 2 0 6 10 12 11 12 12 12 12 12 12 13 12 10 10 8 6 6 6 5 5 6 4 3 3 4 5 6 9 9
6 6 6 7 8 6 9 8 5 3 2 3 2 4 3 4 6 8 10 12 13 13 14 14 13 13 12 11 10 8 8 9 7 7 7 7 5 5 5 7 8 8 8 10
6 5 4 6 8 7 6 3 6 4 4 2 4 3 3 2 6 8 10 12 13 13 14 14 14 14 14 13 12 10 10 10 10 10 9 8 8 7 8 8 8 7 7 8
7 7 5 3 5 8 3 5 4 5 4 4 3 3 0 4 8 11 13 12 12 13 14 14 15 15 14 13 12 11 11 11 11 12 12 11 10 10 9 8 9 9 8 8
3 8 5 1 1 3 3 7 6 3 2 3 4 4 3 9 12 13 13 14 14 14 14 15 15 14 14 14 13 13 13 12 12 13 12 12 12 10 10 11 11 11 9 9
4 6 5 5 4 4 2 2 8 6 1 1 1 4 4 9 12 13 14 14 14 14 14 15 15 14 14 15 14 13 14 14 14 14 14 15 14 14 14 14 13 11 9 9
6 5 6 5 3 1 5 3 5 4 3 1 2 2 3 9 12 13 14 14 13 13 13 13 14 14 13 13 13 14 14 15 15 14 14 14 15 14 14 14 14 13 12 11
3 2 6 5 1 2 3 2 3 4 4 4 1 2 0 10 13 13 13 13 12 12 12 12 12 12 12 13 13 14 14 14 14 14 14 15 14 14 14 13 13 12 11 11
3 4 2 6 5 2 2 1 4 4 2 3 3 0 4 12 12 14 14 13 12 12 12 12 12 12 12 13 13 13 13 14 13 13 14 15 14 13 13 13 11 10 11 10
5 4 3 7 7 8 4 3 1 4 4 4 4 3 5 11 12 13 14 14 13 13 12 12 11 11 12 12 12 12 12 12 12 12 13 13 12 12 12 11 10 9 9 9
6 4 4 4 4 3 5 5 3 4 4 4 5 9 9 11 12 12 13 13 13 12 12 12 11 10 10 11 11 11 11 10 11 11 12 11 10 10 9 9 9 8 8 9
4 3 2 3 3 1 2 3 4 4 5 6 9 10 11 11 12 13 12 13 13 13 12 12 11 10 10 10 9 10 9 9 9 10 10 9 8 8 8 8 7 7 7 7
3 3 2 3 2 3 5 6 7 7 7 10 12 7 8 11 10 11 12 13 13 12 12 12 11 10 10 9 9 9 8 7 8 9 8 7 7 7 6 6 5 5 5 5
3 4 3 3 4 4 5 3 3 5 5 8 6 7 13 12 11 12 12 12 12 12 12 11 10 10 9 8 8 8 7 7 7 7 7 6 6 5 4 4 5 4 3 3
6 4 3 1 4 3 2 2 9 10 6 6 9 12 11 11 9 7 9 11 12 11 11 10 9 9 8 7 7 7 7 7 7 6 5 5 5 4 4 4 3 2 2 2
6 6 4 3 3 2 2 2 5 7 5 6 13 13 12 13 10 6 6 9 10 10 10 9 8 8 8 8 7 7 7 6 6 6 5 4 5 5 4 3 1 1 1 1
5 6 5 3 4 2 1 0 8 10 5 6 12 15 14 10 6 5 7 10 11 11 9 9 8 8 8 6 7 8 7 7 6 6 5 4 4 4 3 2 1 0 1 1
3 3 3 3 3 1 2 1 3 3 7 9 10 13 10 5 5 10 11 10 10 10 10 9 9 7 6 6 8 8 7 6 5 5 5 3 3 3 2 2 2 2 3 3
4 4 2 3 3 3 5 3 3 5 6 11 10 10 9 11 14 13 12 12 11 10 10 9 8 7 5 6 8 7 6 4 4 5 4 3 2 1 2 3 4 4 5 5
4 5 5 4 4 3 2 6 6 9 11 8 9 11 14 15 13 13 11 11 10 10 9 8 8 7 5 6 7 6 4 4 5 4 3 2 2 2 3 4 5 5 5 4
3 5 6 6 5 6 8 9 8 10 10 11 13 14 15 14 14 13 11 10 9 8 8 7 8 7 5 4 5 5 4 4 5 4 2 2 2 3 4 4 4 4 4 4
6 5 6 6 7 9 7 10 13 14 15 15 14 13 13 14 14 12 10 9 8 8 6 7 7 7 6 5 5 4 4 5 4 3 2 2 2 3 4 4 4 4 2 2
3 7 8 8 11 8 8 10 16 16 14 15 15 12 11 12 11 10 9 8 8 8 7 7 7 6 6 6 5 4 4 5 4 2 1 1 2 3 4 4 3 5 2 3
Wind_Direction
293 84 251 246 229 225 247 264 274 280 286 279 228 215 25 45 66 67 67 79 79 77 69 70 79 92 107 106 127 173 166 164 162 160 160 163 170 170 162 163 169 182 184 178
337 271 249 247 251 246 254 264 275 289 306 341 97 92 66 61 69 72 74 75 75 68 58 60 64 63 71 85 89 103 164 161 164 169 168 164 155 145 138 116 103 117 122 126
229 252 268 268 262 258 272 256 265 285 322 14 89 56 64 64 69 67 64 67 69 71 69 66 66 58 53 61 58 65 85 112 118 135 131 116 102 89 88 85 86 76 95 97
251 264 289 291 276 256 273 264 267 295 338 303 81 140 79 92 71 64 61 62 63 65 68 69 70 67 56 49 50 41 49 66 77 95 116 123 131 134 118 103 88 70 66 70
268 288 303 292 270 264 255 265 277 277 257 305 351 128 226 123 92 77 73 72 67 64 65 65 66 69 65 54 50 44 48 52 62 76 96 108 104 112 106 98 91 77 63 60
268 273 251 256 275 271 270 337 351 21 68 309 268 152 231 180 146 117 90 76 73 70 67 63 60 60 60 56 52 44 48 51 56 66 69 86 95 100 104 102 98 82 68 58
312 303 291 275 318 333 23 79 23 356 12 269 318 100 334 90 109 111 102 87 75 70 67 62 58 55 57 57 57 60 58 57 58 64 64 70 80 84 87 90 86 82 73 64
291 296 291 309 195 266 289 140 158 195 227 294 4 65 68 97 95 93 92 88 79 71 68 66 62 60 60 60 58 61 66 64 65 68 68 67 71 76 75 76 80 77 74 70
212 271 291 285 261 196 270 228 176 147 181 25 26 100 106 111 101 98 93 86 80 74 71 70 66 62 60 60 58 62 69 68 67 70 71 69 70 75 78 77 77 77 76 75
177 257 292 299 336 355 176 184 84 106 144 249 308 148 171 150 125 111 99 93 87 82 76 73 70 67 64 64 64 63 66 69 68 70 74 77 75 76 78 81 80 80 77 74
141 188 310 346 359 317 1 42 101 118 145 150 217 308 356 140 131 119 110 103 98 92 87 81 77 74 72 69 66 66 66 69 69 70 74 77 77 77 78 79 78 78 75 72
145 124 294 281 270 246 174 200 147 149 188 139 136 0 74 121 123 122 117 109 102 96 90 87 83 78 75 73 71 69 69 70 71 73 76 76 76 77 77 77 75 75 75 72
136 104 18 349 356 9 17 354 103 134 123 143 146 144 111 121 123 123 120 117 111 104 98 91 84 81 80 79 77 76 74 76 76 78 79 78 77 77 77 77 75 74 74 71
120 107 147 187 240 306 327 343 360 112 129 149 155 148 149 140 132 126 121 119 115 109 104 98 91 85 83 82 83 84 81 82 84 83 82 81 79 79 79 78 75 73 73 72
102 121 197 232 248 267 296 357 31 90 143 147 150 149 160 152 140 133 128 125 120 115 111 108 105 100 95 92 90 89 89 87 90 89 87 85 83 82 81 77 73 71 69 71
103 112 49 360 18 53 53 54 62 71 87 113 120 113 133 130 129 134 138 135 130 125 121 119 114 110 107 105 103 100 98 96 96 94 92 90 88 86 82 80 77 73 70 68
116 107 74 341 1 59 26 16 81 82 98 131 144 147 142 141 144 146 143 136 133 130 127 124 121 121 120 118 118 114 113 106 101 100 100 99 97 92 88 92 86 81 80 81
129 112 116 98 53 78 287 84 109 97 69 95 114 133 139 133 120 115 131 134 132 131 128 125 123 121 120 120 120 118 112 110 108 106 103 102 99 95 92 89 87 87 99 107
140 133 117 109 96 112 143 165 147 117 85 117 127 129 122 119 103 95 114 125 127 126 126 125 125 123 121 123 123 116 111 112 113 113 112 110 106 102 98 92 82 80 102 116
90 99 111 121 125 160 267 67 128 104 119 153 141 142 143 136 138 152 136 122 119 118 119 120 118 114 115 120 118 114 114 113 118 121 120 116 113 112 112 107 78 19 105 123
66 59 87 114 115 127 313 203 133 129 188 161 152 151 152 150 146 137 129 121 121 120 120 119 118 117 119 120 114 114 120 131 141 131 123 118 116 124 116 70 39 50 65 74
133 117 97 105 113 234 307 48 125 167 131 136 139 144 132 119 119 124 126 125 125 122 121 122 120 116 112 115 115 117 131 147 132 124 124 124 119 104 90 66 50 53 66 73
98 149 140 132 174 220 65 105 120 122 122 125 131 132 128 126 128 128 127 129 128 128 126 123 123 118 114 120 123 129 153 143 126 122 125 122 96 62 76 79 72 62 64 74
108 108 99 95 117 111 101 100 98 109 115 120 127 129 130 128 131 129 130 129 128 127 128 126 126 126 131 140 142 153 159 139 130 134 150 145 109 88 77 77 85 85 76 77
163 116 99 105 131 106 101 115 115 110 113 115 119 123 127 130 132 131 132 133 133 132 131 133 137 143 155 155 154 167 163 139 132 138 147 142 128 120 102 82 75 96 94 138
175 145 147 178 178 147 146 136 128 124 126 128 126 121 124 128 129 129 132 134 137 139 139 141 149 156 165 166 172 181 172 155 149 153 171 179 160 139 129 117 75 51 92 88
Height
1495 1501 1504 1499 1496 1497 1496 1497 1496 1484 1473 1476 1478 1479 1479 1477 1476 1477 1478 1479 1480 1482 1484 1486 1488 1491 1495 1499 1503 1507 1510 1513 1518 1521 1525 1529 1532 1535 1537 1540 1541 1542 1544 1546
1501 1502 1491 1487 1487 1490 1491 1494 1491 1480 1470 1473 1478 1482 1482 1481 1481 1481 1480 1480 1481 1482 1483 1485 1487 1491 1494 1496 1502 1505 1508 1511 1515 1519 1523 1527 1530 1533 1536 1538 1539 1540 1542 1543
1500 1491 1482 1483 1484 1485 1486 1488 1486 1481 1473 1472 1478 1489 1487 1487 1486 1484 1484 1483 1482 1483 1484 1486 1487 1490 1493 1493 1497 1502 1505 1509 1513 1518 1522 1525 1528 1531 1533 1535 1536 1537 1539 1540
1491 1483 1481 1481 1481 1479 1486 1476 1476 1476 1482 1488 1483 1502 1495 1491 1489 1489 1489 1487 1486 1486 1486 1488 1489 1490 1493 1496 1498 1502 1505 1508 1512 1515 1519 1522 1524 1527 1530 1532 1533 1534 1536 1537
1487 1481 1480 1481 1477 1475 1477 1471 1473 1474 1481 1489 1487 1498 1499 1491 1492 1493 1493 1492 1491 1490 1489 1490 1491 1492 1495 1498 1499 1504 1506 1508 1511 1515 1517 1520 1522 1525 1527 1529 1530 1531 1532 1533
1480 1476 1476 1474 1470 1469 1469 1472 1475 1480 1488 1500 1489 1495 1499 1493 1491 1493 1495 1496 1495 1494 1493 1493 1494 1496 1496 1498 1500 1504 1506 1507 1510 1513 1516 1518 1520 1522 1524 1526 1528 1528 1529 1529
1484 1477 1472 1470 1472 1469 1471 1487 1502 1502 1509 1504 1488 1492 1499 1491 1492 1494 1496 1498 1498 1498 1497 1497 1498 1499 1500 1502 1503 1503 1506 1507 1508 1511 1515 1516 1518 1520 1522 1523 1524 1525 1526 1527
1494 1490 1475 1471 1473 1476 1475 1484 1504 1510 1510 1504 1493 1499 1500 1496 1497 1499 1500 1501 1503 1503 1502 1502 1503 1504 1505 1505 1506 1507 1507 1508 1509 1511 1513 1514 1516 1518 1519 1520 1522 1523 1524 1525
1492 1489 1473 1468 1467 1470 1475 1479 1483 1496 1498 1506 1503 1501 1501 1499 1500 1502 1504 1506 1506 1507 1507 1508 1508 1508 1508 1508 1509 1509 1510 1511 1511 1512 1513 1515 1516 1517 1519 1520 1522 1524 1525 1526
1482 1488 1476 1469 1465 1466 1470 1473 1487 1496 1506 1511 1506 1503 1503 1501 1502 1504 1507 1509 1510 1512 1512 1512 1512 1513 1513 1513 1513 1513 1514 1513 1514 1515 1515 1516 1517 1519 1521 1522 1524 1525 1526 1527
1479 1487 1482 1474 1474 1475 1474 1476 1483 1494 1498 1509 1514 1511 1498 1499 1501 1505 1508 1511 1513 1514 1515 1516 1516 1517 1518 1518 1518 1517 1517 1517 1517 1518 1518 1519 1520 1522 1523 1525 1526 1527 1528 1530
1479 1487 1489 1480 1471 1468 1471 1475 1482 1494 1500 1500 1507 1513 1500 1500 1503 1506 1510 1513 1515 1516 1518 1519 1520 1521 1521 1521 1522 1522 1522 1522 1522 1523 1523 1523 1524 1526 1527 1528 1530 1531 1532 1533
1477 1487 1494 1488 1483 1477 1477 1475 1477 1485 1495 1502 1506 1512 1504 1505 1507 1509 1511 1514 1517 1519 1521 1522 1524 1524 1525 1526 1526 1526 1526 1527 1527 1527 1528 1528 1530 1531 1532 1533 1535 1536 1536 1537
1473 1485 1493 1496 1493 1488 1484 1477 1475 1482 1495 1498 1498 1503 1506 1507 1509 1512 1514 1516 1519 1522 1524 1525 1527 1528 1529 1530 1530 1531 1531 1532 1532 1533 1533 1534 1535 1536 1537 1538 1539 1540 1541 1541
1473 1484 1484 1484 1481 1482 1482 1478 1476 1479 1483 1492 1494 1498 1503 1506 1510 1513 1516 1519 1522 1525 1527 1529 1530 1532 1533 1534 1535 1535 1536 1537 1538 1538 1539 1539 1540 1541 1542 1543 1544 1544 1545 1545
1475 1481 1482 1482 1478 1479 1481 1479 1478 1480 1483 1488 1494 1502 1503 1508 1511 1515 1518 1521 1523 1527 1529 1531 1534 1535 1537 1538 1539 1540 1541 1542 1543 1543 1544 1545 1545 1546 1547 1548 1548 1549 1549 1549
1476 1481 1487 1490 1481 1482 1491 1486 1484 1486 1487 1490 1497 1501 1505 1509 1513 1516 1519 1522 1525 1528 1530 1533 1536 1538 1540 1542 1543 1544 1545 1546 1547 1547 1548 1550 1550 1551 1552 1552 1553 1553 1553 1553
1474 1481 1490 1492 1491 1501 1495 1484 1484 1489 1493 1492 1496 1501 1506 1510 1515 1518 1520 1523 1526 1529 1532 1535 1538 1540 1542 1544 1546 1547 1548 1550 1551 1552 1553 1554 1555 1555 1556 1556 1556 1556 1556 1555
1466 1477 1488 1495 1497 1497 1491 1487 1487 1491 1499 1498 1500 1505 1510 1513 1517 1522 1524 1525 1528 1531 1534 1537 1540 1542 1545 1547 1548 1550 1551 1553 1554 1556 1557 1558 1558 1558 1558 1559 1559 1558 1557 1556
1468 1473 1485 1492 1498 1502 1495 1486 1484 1490 1503 1502 1502 1506 1511 1514 1519 1524 1525 1527 1530 1533 1536 1539 1542 1545 1547 1549 1551 1553 1554 1556 1557 1559 1559 1560 1561 1561 1561 1560 1560 1559 1558 1557
1476 1480 1485 1492 1497 1495 1488 1485 1485 1497 1501 1501 1502 1506 1510 1513 1516 1521 1525 1529 1532 1535 1538 1541 1544 1547 1549 1551 1553 1555 1557 1559 1560 1561 1562 1562 1563 1562 1562 1562 1561 1560 1559 1558
1478 1484 1488 1492 1500 1500 1487 1485 1489 1493 1493 1498 1503 1506 1510 1513 1517 1522 1526 1530 1534 1537 1541 1543 1546 1549 1551 1554 1555 1557 1559 1560 1562 1562 1563 1564 1564 1564 1563 1563 1561 1560 1559 1558
1475 1479 1486 1491 1497 1491 1487 1487 1489 1491 1495 1500 1503 1507 1511 1515 1520 1524 1529 1533 1536 1539 1542 1545 1548 1550 1553 1556 1557 1559 1561 1562 1563 1564 1564 1565 1565 1564 1564 1563 1562 1561 1559 1558
1474 1475 1483 1490 1492 1491 1491 1491 1493 1495 1498 1501 1505 1509 1513 1517 1522 1526 1531 1535 1538 1542 1545 1547 1550 1552 1555 1557 1559 1560 1562 1563 1564 1565 1565 1565 1565 1565 1564 1563 1562 1561 1560 1558
1471 1475 1483 1490 1492 1493 1495 1495 1496 1499 1502 1505 1509 1512 1516 1520 1525 1529 1533 1537 1540 1544 1547 1549 1552 1554 1556 1558 1560 1561 1563 1564 1565 1565 1566 1566 1566 1565 1565 1564 1563 1562 1560 1559
1467 1472 1480 1485 1485 1489 1495 1497 1499 1501 1505 1508 1512 1517 1521 1524 1527 1532 1535 1539 1542 1545 1548 1551 1553 1555 1557 1559 1561 1562 1563 1564 1565 1566 1566 1566 1565 1565 1565 1564 1564 1563 1562 1560